sat.trackr.live / text

‹ back to catalog

STARLINK-36460

NORAD 67432 · 2026-005AE

PAYLOAD ACTIVE UNKNOWN

§ Identity

Operator
Country
US
Launch date
2026-01-12
Launch site
AFETR
Launch vehicle
Mass (kg)
RCS (m²)

Purposes: comms

External: N2YO · Heavens-Above · Gunter

§ Orbital elements

Epoch: 2026-09-19T05:55:36.321888Z

Period
94.27 min
Inclination
42.9994°
Eccentricity
0.0001171
Mean motion
15.27580318 rev/d
Perigee alt
482.2 km
Apogee alt
483.9 km
Semi-major
6,861.2 km
B*
4.2026e-4
RAAN
225.2905°
Arg perigee
276.9568°
Mean anomaly
83.1150°
Rev number
3,828

§ Raw data

STARLINK-364601 67432U 26005AE  26262.24694817  .00011320  00000+0  42026-3 0  99972 67432  42.9994 225.2905 0001171 276.9568  83.1150 15.27580318 38288

JSON: /api/v1/satellites/67432 · /tle

For live sub-satellite position, see the globe view (requires WebGL).

§ Visibility from observer

Set your observer location to see the next 7 days of passes ≥ 10°. The values pass through the URL so the page stays shareable.

No JS? Fill the form by hand. The geolocation button needs JavaScript.